Year,Month,Day,Hour,Minute,Value (Times are PST for windgust in km/hr)
2010,07,11,00,00,17.70
2010,07,11,00,01,22.50
2010,07,11,00,02,11.30
2010,07,11,00,03,25.70
2010,07,11,00,04,37.00
2010,07,11,00,05,22.50
2010,07,11,00,06,19.30
2010,07,11,00,07,19.30
2010,07,11,00,08,19.30
2010,07,11,00,09,19.30
2010,07,11,00,10,20.90
2010,07,11,00,11,9.60
2010,07,11,00,12,19.30
2010,07,11,00,13,19.30
2010,07,11,00,14,19.30
2010,07,11,00,15,14.50
2010,07,11,00,16,19.30
2010,07,11,00,17,20.90
2010,07,11,00,18,24.20
2010,07,11,00,19,24.20
2010,07,11,00,20,11.30
2010,07,11,00,21,17.70
2010,07,11,00,22,19.30
2010,07,11,00,23,11.30
2010,07,11,00,24,16.10
2010,07,11,00,25,24.20
2010,07,11,00,26,17.70
2010,07,11,00,27,17.70
2010,07,11,00,28,16.10
2010,07,11,00,29,19.30
2010,07,11,00,30,14.50
2010,07,11,00,31,11.30
2010,07,11,00,32,16.10
2010,07,11,00,33,24.20
2010,07,11,00,34,17.70
2010,07,11,00,35,20.90
2010,07,11,00,36,17.70
2010,07,11,00,37,20.90
2010,07,11,00,38,24.20
2010,07,11,00,39,19.30
2010,07,11,00,40,25.70
2010,07,11,00,41,16.10
2010,07,11,00,42,19.30
2010,07,11,00,43,20.90
2010,07,11,00,44,14.50
2010,07,11,00,45,22.50
2010,07,11,00,46,17.70
2010,07,11,00,47,16.10
2010,07,11,00,48,17.70
2010,07,11,00,49,27.40
2010,07,11,00,50,17.70
2010,07,11,00,51,16.10
2010,07,11,00,52,16.10
2010,07,11,00,53,16.10
2010,07,11,00,54,22.50
2010,07,11,00,55,22.50
2010,07,11,00,56,14.50
2010,07,11,00,57,20.90
2010,07,11,00,58,12.90
2010,07,11,00,59,9.60
2010,07,11,01,00,11.30
2010,07,11,01,01,14.50
2010,07,11,01,02,9.60
2010,07,11,01,03,16.10
2010,07,11,01,04,12.90
2010,07,11,01,05,17.70
2010,07,11,01,06,12.90
2010,07,11,01,07,12.90
2010,07,11,01,08,9.60
2010,07,11,01,09,19.30
2010,07,11,01,10,14.50
2010,07,11,01,11,16.10
2010,07,11,01,12,16.10
2010,07,11,01,13,17.70
2010,07,11,01,14,16.10
2010,07,11,01,15,14.50
2010,07,11,01,16,14.50
2010,07,11,01,17,11.30
2010,07,11,01,18,19.30
2010,07,11,01,19,17.70
2010,07,11,01,20,20.90
2010,07,11,01,21,17.70
2010,07,11,01,22,14.50
2010,07,11,01,23,16.10
2010,07,11,01,24,16.10
2010,07,11,01,25,14.50
2010,07,11,01,26,19.30
2010,07,11,01,27,11.30
2010,07,11,01,28,19.30
2010,07,11,01,29,19.30
2010,07,11,01,30,12.90
2010,07,11,01,31,17.70
2010,07,11,01,32,14.50
2010,07,11,01,33,19.30
2010,07,11,01,34,16.10
2010,07,11,01,35,17.70
2010,07,11,01,36,17.70
2010,07,11,01,37,14.50
2010,07,11,01,38,11.30
2010,07,11,01,39,17.70
2010,07,11,01,40,16.10
2010,07,11,01,41,17.70
2010,07,11,01,42,16.10
2010,07,11,01,43,16.10
2010,07,11,01,44,11.30
2010,07,11,01,45,14.50
2010,07,11,01,46,19.30
2010,07,11,01,47,17.70
2010,07,11,01,48,16.10
2010,07,11,01,49,11.30
2010,07,11,01,50,16.10
2010,07,11,01,51,12.90
2010,07,11,01,52,9.60
2010,07,11,01,53,16.10
2010,07,11,01,54,20.90
2010,07,11,01,55,20.90
2010,07,11,01,56,16.10
2010,07,11,01,57,16.10
2010,07,11,01,58,11.30
2010,07,11,01,59,11.30
2010,07,11,02,00,11.30
2010,07,11,02,01,11.30
2010,07,11,02,02,11.30
2010,07,11,02,03,12.90
2010,07,11,02,04,12.90
2010,07,11,02,05,14.50
2010,07,11,02,06,14.50
2010,07,11,02,07,17.70
2010,07,11,02,08,14.50
2010,07,11,02,09,12.90
2010,07,11,02,10,17.70
2010,07,11,02,11,16.10
2010,07,11,02,12,17.70
2010,07,11,02,13,19.30
2010,07,11,02,14,14.50
2010,07,11,02,15,17.70
2010,07,11,02,16,16.10
2010,07,11,02,17,16.10
2010,07,11,02,18,16.10
2010,07,11,02,19,14.50
2010,07,11,02,20,14.50
2010,07,11,02,21,14.50
2010,07,11,02,22,16.10
2010,07,11,02,23,16.10
2010,07,11,02,24,9.60
2010,07,11,02,25,14.50
2010,07,11,02,26,14.50
2010,07,11,02,27,16.10
2010,07,11,02,28,17.70
2010,07,11,02,29,16.10
2010,07,11,02,30,12.90
2010,07,11,02,31,14.50
2010,07,11,02,32,17.70
2010,07,11,02,33,11.30
2010,07,11,02,34,17.70
2010,07,11,02,35,19.30
2010,07,11,02,36,17.70
2010,07,11,02,37,16.10
2010,07,11,02,38,16.10
2010,07,11,02,39,16.10
2010,07,11,02,40,19.30
2010,07,11,02,41,14.50
2010,07,11,02,42,17.70
2010,07,11,02,43,14.50
2010,07,11,02,44,16.10
2010,07,11,02,45,14.50
2010,07,11,02,46,14.50
2010,07,11,02,47,9.60
2010,07,11,02,48,9.60
2010,07,11,02,49,9.60
2010,07,11,02,50,9.60
2010,07,11,02,51,8.10
2010,07,11,02,52,9.60
2010,07,11,02,53,9.60
2010,07,11,02,54,9.60
2010,07,11,02,55,11.30
2010,07,11,02,56,16.10
2010,07,11,02,57,19.30
2010,07,11,02,58,17.70
2010,07,11,02,59,17.70
2010,07,11,03,00,17.70
2010,07,11,03,01,16.10
2010,07,11,03,02,20.90
2010,07,11,03,03,19.30
2010,07,11,03,04,19.30
2010,07,11,03,05,14.50
2010,07,11,03,06,19.30
2010,07,11,03,07,16.10
2010,07,11,03,08,16.10
2010,07,11,03,09,17.70
2010,07,11,03,10,20.90
2010,07,11,03,11,17.70
2010,07,11,03,12,17.70
2010,07,11,03,13,14.50
2010,07,11,03,14,17.70
2010,07,11,03,15,16.10
2010,07,11,03,16,9.60
2010,07,11,03,17,12.90
2010,07,11,03,18,17.70
2010,07,11,03,19,16.10
2010,07,11,03,20,14.50
2010,07,11,03,21,8.10
2010,07,11,03,22,9.60
2010,07,11,03,23,11.30
2010,07,11,03,24,14.50
2010,07,11,03,25,11.30
2010,07,11,03,26,9.60
2010,07,11,03,27,11.30
2010,07,11,03,28,11.30
2010,07,11,03,29,11.30
2010,07,11,03,30,16.10
2010,07,11,03,31,9.60
2010,07,11,03,32,16.10
2010,07,11,03,33,16.10
2010,07,11,03,34,14.50
2010,07,11,03,35,17.70
2010,07,11,03,36,14.50
2010,07,11,03,37,8.10
2010,07,11,03,38,9.60
2010,07,11,03,39,9.60
2010,07,11,03,40,8.10
2010,07,11,03,41,17.70
2010,07,11,03,42,12.90
2010,07,11,03,43,11.30
2010,07,11,03,44,12.90
2010,07,11,03,45,14.50
2010,07,11,03,46,11.30
2010,07,11,03,47,9.60
2010,07,11,03,48,11.30
2010,07,11,03,49,9.60
2010,07,11,03,50,12.90
2010,07,11,03,51,14.50
2010,07,11,03,52,8.10
2010,07,11,03,53,9.60
2010,07,11,03,54,9.60
2010,07,11,03,55,12.90
2010,07,11,03,56,11.30
2010,07,11,03,57,9.60
2010,07,11,03,58,11.30
2010,07,11,03,59,6.40
2010,07,11,04,00,6.40
2010,07,11,04,01,8.10
2010,07,11,04,02,6.40
2010,07,11,04,03,6.40
2010,07,11,04,04,8.10
2010,07,11,04,05,8.10
2010,07,11,04,06,8.10
2010,07,11,04,07,8.10
2010,07,11,04,08,11.30
2010,07,11,04,09,9.60
2010,07,11,04,10,9.60
2010,07,11,04,11,11.30
2010,07,11,04,12,12.90
2010,07,11,04,13,14.50
2010,07,11,04,14,8.10
2010,07,11,04,15,9.60
2010,07,11,04,16,9.60
2010,07,11,04,17,8.10
2010,07,11,04,18,6.40
2010,07,11,04,19,8.10
2010,07,11,04,20,9.60
2010,07,11,04,21,9.60
2010,07,11,04,22,8.10
2010,07,11,04,23,8.10
2010,07,11,04,24,3.20
2010,07,11,04,25,8.10
2010,07,11,04,26,8.10
2010,07,11,04,27,8.10
2010,07,11,04,28,8.10
2010,07,11,04,29,9.60
2010,07,11,04,30,11.30
2010,07,11,04,31,9.60
2010,07,11,04,32,9.60
2010,07,11,04,33,9.60
2010,07,11,04,34,9.60
2010,07,11,04,35,9.60
2010,07,11,04,36,9.60
2010,07,11,04,37,11.30
2010,07,11,04,38,11.30
2010,07,11,04,39,12.90
2010,07,11,04,40,9.60
2010,07,11,04,41,8.10
2010,07,11,04,42,8.10
2010,07,11,04,43,9.60
2010,07,11,04,44,14.50
2010,07,11,04,45,14.50
2010,07,11,04,46,6.40
2010,07,11,04,47,6.40
2010,07,11,04,48,6.40
2010,07,11,04,49,4.80
2010,07,11,04,50,4.80
2010,07,11,04,51,3.20
2010,07,11,04,52,4.80
2010,07,11,04,53,4.80
2010,07,11,04,54,6.40
2010,07,11,04,55,6.40
2010,07,11,04,56,8.10
2010,07,11,04,57,11.30
2010,07,11,04,58,8.10
2010,07,11,04,59,4.80
2010,07,11,05,00,9.60
2010,07,11,05,01,6.40
2010,07,11,05,02,8.10
2010,07,11,05,03,9.60
2010,07,11,05,04,9.60
2010,07,11,05,05,6.40
2010,07,11,05,06,4.80
2010,07,11,05,07,3.20
2010,07,11,05,08,6.40
2010,07,11,05,09,9.60
2010,07,11,05,10,11.30
2010,07,11,05,11,9.60
2010,07,11,05,12,9.60
2010,07,11,05,13,9.60
2010,07,11,05,14,4.80
2010,07,11,05,15,8.10
2010,07,11,05,16,3.20
2010,07,11,05,17,6.40
2010,07,11,05,18,6.40
2010,07,11,05,19,1.60
2010,07,11,05,20,6.40
2010,07,11,05,21,9.60
2010,07,11,05,22,8.10
2010,07,11,05,23,6.40
2010,07,11,05,24,8.10
2010,07,11,05,25,6.40
2010,07,11,05,26,6.40
2010,07,11,05,27,6.40
2010,07,11,05,28,4.80
2010,07,11,05,29,6.40
2010,07,11,05,30,6.40
2010,07,11,05,31,6.40
2010,07,11,05,32,6.40
2010,07,11,05,33,4.80
2010,07,11,05,34,4.80
2010,07,11,05,35,1.60
2010,07,11,05,58,3.20
2010,07,11,05,59,3.20
2010,07,11,06,00,1.60
2010,07,11,06,01,3.20
2010,07,11,06,02,4.80
2010,07,11,06,04,3.20
2010,07,11,06,05,1.60
2010,07,11,06,06,1.60
2010,07,11,06,07,4.80
2010,07,11,06,08,4.80
2010,07,11,06,09,1.60
2010,07,11,06,10,1.60
2010,07,11,06,11,4.80
2010,07,11,06,12,1.60
2010,07,11,06,14,1.60
2010,07,11,06,15,4.80
2010,07,11,06,16,4.80
2010,07,11,06,17,4.80
2010,07,11,06,18,3.20
2010,07,11,06,19,1.60
2010,07,11,06,21,3.20
2010,07,11,07,03,3.20
2010,07,11,07,04,3.20
2010,07,11,07,05,4.80
2010,07,11,07,06,4.80
2010,07,11,07,07,9.60
2010,07,11,07,08,8.10
2010,07,11,07,09,6.40
2010,07,11,07,10,8.10
2010,07,11,07,11,6.40
2010,07,11,07,12,16.10
2010,07,11,07,13,8.10
2010,07,11,07,14,8.10
2010,07,11,07,15,11.30
2010,07,11,07,16,16.10
2010,07,11,07,17,16.10
2010,07,11,07,18,16.10
2010,07,11,07,19,17.70
2010,07,11,07,20,9.60
2010,07,11,07,21,11.30
2010,07,11,07,22,8.10
2010,07,11,07,23,11.30
2010,07,11,07,24,14.50
2010,07,11,07,25,14.50
2010,07,11,07,26,14.50
2010,07,11,07,27,11.30
2010,07,11,07,28,17.70
2010,07,11,07,29,14.50
2010,07,11,07,30,17.70
2010,07,11,07,31,14.50
2010,07,11,07,32,12.90
2010,07,11,07,33,6.40
2010,07,11,07,34,8.10
2010,07,11,07,35,9.60
2010,07,11,07,36,8.10
2010,07,11,07,37,8.10
2010,07,11,07,38,12.90
2010,07,11,07,39,6.40
2010,07,11,07,40,6.40
2010,07,11,07,41,6.40
2010,07,11,07,42,11.30
2010,07,11,07,43,11.30
2010,07,11,07,44,11.30
2010,07,11,07,45,9.60
2010,07,11,07,46,9.60
2010,07,11,07,47,9.60
2010,07,11,07,48,19.30
2010,07,11,07,49,14.50
2010,07,11,07,50,9.60
2010,07,11,07,51,16.10
2010,07,11,07,52,16.10
2010,07,11,07,53,8.10
2010,07,11,07,54,16.10
2010,07,11,07,55,11.30
2010,07,11,07,56,9.60
2010,07,11,07,57,6.40
2010,07,11,07,58,9.60
2010,07,11,07,59,14.50
2010,07,11,08,00,14.50
2010,07,11,08,01,12.90
2010,07,11,08,02,9.60
2010,07,11,08,03,11.30
2010,07,11,08,04,11.30
2010,07,11,08,05,19.30
2010,07,11,08,06,17.70
2010,07,11,08,07,11.30
2010,07,11,08,08,14.50
2010,07,11,08,09,11.30
2010,07,11,08,10,19.30
2010,07,11,08,11,19.30
2010,07,11,08,12,16.10
2010,07,11,08,13,17.70
2010,07,11,08,14,19.30
2010,07,11,08,15,17.70
2010,07,11,08,16,14.50
2010,07,11,08,17,11.30
2010,07,11,08,18,14.50
2010,07,11,08,19,11.30
2010,07,11,08,20,9.60
2010,07,11,08,21,16.10
2010,07,11,08,22,11.30
2010,07,11,08,23,8.10
2010,07,11,08,24,11.30
2010,07,11,08,25,3.20
2010,07,11,08,26,16.10
2010,07,11,08,27,16.10
2010,07,11,08,28,17.70
2010,07,11,08,29,9.60
2010,07,11,08,30,14.50
2010,07,11,08,31,17.70
2010,07,11,08,32,14.50
2010,07,11,08,33,8.10
2010,07,11,08,34,6.40
2010,07,11,08,35,8.10
2010,07,11,08,36,11.30
2010,07,11,08,37,12.90
2010,07,11,08,38,11.30
2010,07,11,08,39,14.50
2010,07,11,08,40,8.10
2010,07,11,08,41,11.30
2010,07,11,08,42,9.60
2010,07,11,08,43,8.10
2010,07,11,08,44,9.60
2010,07,11,08,45,8.10
2010,07,11,08,46,11.30
2010,07,11,08,47,11.30
2010,07,11,08,48,11.30
2010,07,11,08,49,9.60
2010,07,11,08,50,8.10
2010,07,11,08,51,16.10
2010,07,11,08,52,11.30
2010,07,11,08,53,9.60
2010,07,11,08,54,12.90
2010,07,11,08,55,11.30
2010,07,11,08,56,9.60
2010,07,11,08,57,11.30
2010,07,11,08,58,8.10
2010,07,11,08,59,8.10
2010,07,11,09,00,9.60
2010,07,11,09,01,6.40
2010,07,11,09,02,6.40
2010,07,11,09,03,3.20
2010,07,11,09,04,3.20
2010,07,11,09,06,3.20
2010,07,11,09,07,3.20
2010,07,11,09,08,3.20
2010,07,11,09,09,3.20
2010,07,11,09,10,3.20
2010,07,11,09,11,4.80
2010,07,11,09,12,1.60
2010,07,11,09,13,8.10
2010,07,11,09,14,11.30
2010,07,11,09,15,16.10
2010,07,11,09,16,9.60
2010,07,11,09,17,8.10
2010,07,11,09,18,8.10
2010,07,11,09,19,3.20
2010,07,11,09,20,8.10
2010,07,11,09,21,9.60
2010,07,11,09,22,8.10
2010,07,11,09,23,11.30
2010,07,11,09,24,11.30
2010,07,11,09,25,9.60
2010,07,11,09,26,9.60
2010,07,11,09,27,9.60
2010,07,11,09,28,9.60
2010,07,11,09,29,11.30
2010,07,11,09,30,9.60
2010,07,11,09,31,9.60
2010,07,11,09,32,8.10
2010,07,11,09,33,19.30
2010,07,11,09,34,16.10
2010,07,11,09,35,11.30
2010,07,11,09,36,12.90
2010,07,11,09,37,16.10
2010,07,11,09,38,8.10
2010,07,11,09,39,11.30
2010,07,11,09,40,11.30
2010,07,11,09,41,14.50
2010,07,11,09,42,16.10
2010,07,11,09,43,16.10
2010,07,11,09,44,11.30
2010,07,11,09,45,8.10
2010,07,11,09,46,16.10
2010,07,11,09,47,16.10
2010,07,11,09,48,17.70
2010,07,11,09,49,14.50
2010,07,11,09,50,11.30
2010,07,11,09,51,8.10
2010,07,11,09,52,11.30
2010,07,11,09,53,19.30
2010,07,11,09,54,20.90
2010,07,11,09,55,20.90
2010,07,11,09,56,16.10
2010,07,11,09,57,9.60
2010,07,11,09,58,19.30
2010,07,11,09,59,16.10
2010,07,11,10,00,16.10
2010,07,11,10,01,16.10
2010,07,11,10,02,11.30
2010,07,11,10,03,6.40
2010,07,11,10,04,8.10
2010,07,11,10,05,8.10
2010,07,11,10,06,9.60
2010,07,11,10,07,9.60
2010,07,11,10,08,11.30
2010,07,11,10,09,14.50
2010,07,11,10,10,16.10
2010,07,11,10,11,11.30
2010,07,11,10,12,14.50
2010,07,11,10,13,17.70
2010,07,11,10,14,8.10
2010,07,11,10,15,8.10
2010,07,11,10,16,11.30
2010,07,11,10,17,11.30
2010,07,11,10,18,9.60
2010,07,11,10,19,11.30
2010,07,11,10,20,16.10
2010,07,11,10,21,19.30
2010,07,11,10,22,12.90
2010,07,11,10,23,9.60
2010,07,11,10,24,14.50
2010,07,11,10,25,14.50
2010,07,11,10,26,17.70
2010,07,11,10,27,24.20
2010,07,11,10,28,19.30
2010,07,11,10,29,16.10
2010,07,11,10,30,11.30
2010,07,11,10,31,6.40
2010,07,11,10,32,19.30
2010,07,11,10,33,17.70
2010,07,11,10,34,22.50
2010,07,11,10,35,24.20
2010,07,11,10,36,16.10
2010,07,11,10,37,9.60
2010,07,11,10,38,16.10
2010,07,11,10,39,16.10
2010,07,11,10,40,30.60
2010,07,11,10,41,25.70
2010,07,11,10,42,24.20
2010,07,11,10,43,17.70
2010,07,11,10,44,17.70
2010,07,11,10,45,24.20
2010,07,11,10,46,22.50
2010,07,11,10,47,25.70
2010,07,11,10,48,20.90
2010,07,11,10,49,20.90
2010,07,11,10,50,19.30
2010,07,11,10,51,25.70
2010,07,11,10,52,17.70
2010,07,11,10,53,20.90
2010,07,11,10,54,19.30
2010,07,11,10,55,14.50
2010,07,11,10,56,11.30
2010,07,11,10,57,16.10
2010,07,11,10,58,24.20
2010,07,11,10,59,20.90
2010,07,11,11,00,24.20
2010,07,11,11,01,19.30
2010,07,11,11,02,16.10
2010,07,11,11,03,20.90
2010,07,11,11,04,24.20
2010,07,11,11,05,17.70
2010,07,11,11,06,19.30
2010,07,11,11,07,20.90
2010,07,11,11,08,16.10
2010,07,11,11,09,11.30
2010,07,11,11,10,17.70
2010,07,11,11,11,11.30
2010,07,11,11,12,24.20
2010,07,11,11,13,22.50
2010,07,11,11,14,25.70
2010,07,11,11,15,20.90
2010,07,11,11,16,20.90
2010,07,11,11,17,24.20
2010,07,11,11,18,25.70
2010,07,11,11,19,32.20
2010,07,11,11,20,20.90
2010,07,11,11,21,20.90
2010,07,11,11,22,24.20
2010,07,11,11,23,19.30
2010,07,11,11,24,17.70
2010,07,11,11,25,25.70
2010,07,11,11,26,19.30
2010,07,11,11,27,20.90
2010,07,11,11,28,20.90
2010,07,11,11,29,32.20
2010,07,11,11,30,22.50
2010,07,11,11,31,17.70
2010,07,11,11,32,25.70
2010,07,11,11,33,24.20
2010,07,11,11,34,27.40
2010,07,11,11,35,29.00
2010,07,11,11,36,24.20
2010,07,11,11,37,22.50
2010,07,11,11,38,24.20
2010,07,11,11,39,25.70
2010,07,11,11,40,24.20
2010,07,11,11,41,20.90
2010,07,11,11,42,22.50
2010,07,11,11,43,20.90
2010,07,11,11,44,25.70
2010,07,11,11,45,25.70
2010,07,11,11,46,17.70
2010,07,11,11,47,27.40
2010,07,11,11,48,27.40
2010,07,11,11,49,22.50
2010,07,11,11,50,25.70
2010,07,11,11,51,29.00
2010,07,11,11,52,27.40
2010,07,11,11,53,32.20
2010,07,11,11,54,29.00
2010,07,11,11,55,30.60
2010,07,11,11,56,22.50
2010,07,11,11,57,24.20
2010,07,11,11,58,20.90
2010,07,11,11,59,35.40
2010,07,11,12,00,25.70
2010,07,11,12,01,29.00
2010,07,11,12,02,27.40
2010,07,11,12,03,24.20
2010,07,11,12,04,20.90
2010,07,11,12,05,22.50
2010,07,11,12,06,20.90
2010,07,11,12,07,24.20
2010,07,11,12,08,20.90
2010,07,11,12,09,22.50
2010,07,11,12,10,35.40
2010,07,11,12,11,30.60
2010,07,11,12,12,25.70
2010,07,11,12,13,29.00
2010,07,11,12,14,22.50
2010,07,11,12,15,19.30
2010,07,11,12,16,20.90
2010,07,11,12,17,30.60
2010,07,11,12,18,29.00
2010,07,11,12,19,30.60
2010,07,11,12,20,17.70
2010,07,11,12,21,11.30
2010,07,11,12,22,16.10
2010,07,11,12,23,14.50
2010,07,11,12,24,16.10
2010,07,11,12,25,17.70
2010,07,11,12,26,29.00
2010,07,11,12,27,16.10
2010,07,11,12,28,24.20
2010,07,11,12,29,25.70
2010,07,11,12,30,24.20
2010,07,11,12,31,22.50
2010,07,11,12,32,22.50
2010,07,11,12,33,27.40
2010,07,11,12,34,22.50
2010,07,11,12,35,33.80
2010,07,11,12,36,29.00
2010,07,11,12,37,22.50
2010,07,11,12,38,29.00
2010,07,11,12,39,25.70
2010,07,11,12,40,19.30
2010,07,11,12,41,30.60
2010,07,11,12,42,29.00
2010,07,11,12,43,17.70
2010,07,11,12,44,20.90
2010,07,11,12,45,20.90
2010,07,11,12,46,29.00
2010,07,11,12,47,32.20
2010,07,11,12,48,19.30
2010,07,11,12,49,24.20
2010,07,11,12,50,30.60
2010,07,11,12,51,20.90
2010,07,11,12,52,20.90
2010,07,11,12,53,24.20
2010,07,11,12,54,35.40
2010,07,11,12,55,32.20
2010,07,11,12,56,33.80
2010,07,11,12,57,29.00
2010,07,11,12,58,27.40
2010,07,11,12,59,32.20
2010,07,11,13,00,25.70
2010,07,11,13,01,20.90
2010,07,11,13,02,25.70
2010,07,11,13,03,30.60
2010,07,11,13,04,20.90
2010,07,11,13,05,20.90
2010,07,11,13,06,29.00
2010,07,11,13,07,35.40
2010,07,11,13,08,29.00
2010,07,11,13,09,33.80
2010,07,11,13,10,27.40
2010,07,11,13,11,20.90
2010,07,11,13,12,30.60
2010,07,11,13,13,25.70
2010,07,11,13,14,20.90
2010,07,11,13,15,19.30
2010,07,11,13,16,30.60
2010,07,11,13,17,32.20
2010,07,11,13,18,32.20
2010,07,11,13,19,30.60
2010,07,11,13,20,29.00
2010,07,11,13,21,35.40
2010,07,11,13,22,25.70
2010,07,11,13,23,30.60
2010,07,11,13,24,25.70
2010,07,11,13,25,24.20
2010,07,11,13,26,32.20
2010,07,11,13,27,25.70
2010,07,11,13,28,24.20
2010,07,11,13,29,29.00
2010,07,11,13,30,32.20
2010,07,11,13,31,41.80
2010,07,11,13,32,29.00
2010,07,11,13,33,30.60
2010,07,11,13,34,35.40
2010,07,11,13,35,29.00
2010,07,11,13,36,32.20
2010,07,11,13,37,33.80
2010,07,11,13,38,41.80
2010,07,11,13,39,30.60
2010,07,11,13,40,22.50
2010,07,11,13,41,24.20
2010,07,11,13,42,24.20
2010,07,11,13,43,24.20
2010,07,11,13,44,30.60
2010,07,11,13,45,37.00
2010,07,11,13,46,29.00
2010,07,11,13,47,27.40
2010,07,11,13,48,33.80
2010,07,11,13,49,33.80
2010,07,11,13,50,19.30
2010,07,11,13,51,20.90
2010,07,11,13,52,22.50
2010,07,11,13,53,20.90
2010,07,11,13,54,27.40
2010,07,11,13,55,32.20
2010,07,11,13,56,29.00
2010,07,11,13,57,29.00
2010,07,11,13,58,25.70
2010,07,11,13,59,25.70
2010,07,11,14,00,29.00
2010,07,11,14,01,30.60
2010,07,11,14,02,35.40
2010,07,11,14,03,35.40
2010,07,11,14,04,22.50
2010,07,11,14,05,22.50
2010,07,11,14,06,27.40
2010,07,11,14,07,25.70
2010,07,11,14,08,25.70
2010,07,11,14,09,22.50
2010,07,11,14,10,19.30
2010,07,11,14,11,17.70
2010,07,11,14,12,20.90
2010,07,11,14,13,22.50
2010,07,11,14,14,30.60
2010,07,11,14,15,24.20
2010,07,11,14,16,24.20
2010,07,11,14,17,25.70
2010,07,11,14,18,27.40
2010,07,11,14,19,29.00
2010,07,11,14,20,29.00
2010,07,11,14,21,27.40
2010,07,11,14,22,22.50
2010,07,11,14,23,12.90
2010,07,11,14,24,20.90
2010,07,11,14,25,14.50
2010,07,11,14,26,30.60
2010,07,11,14,27,32.20
2010,07,11,14,28,25.70
2010,07,11,14,29,14.50
2010,07,11,14,30,29.00
2010,07,11,14,31,25.70
2010,07,11,14,32,22.50
2010,07,11,14,33,33.80
2010,07,11,14,34,33.80
2010,07,11,14,35,24.20
2010,07,11,14,36,25.70
2010,07,11,14,37,25.70
2010,07,11,14,38,16.10
2010,07,11,14,39,22.50
2010,07,11,14,40,17.70
2010,07,11,14,41,24.20
2010,07,11,14,42,25.70
2010,07,11,14,43,32.20
2010,07,11,14,44,27.40
2010,07,11,14,45,22.50
2010,07,11,14,46,30.60
2010,07,11,14,47,32.20
2010,07,11,14,48,27.40
2010,07,11,14,49,29.00
2010,07,11,14,50,29.00
2010,07,11,14,51,20.90
2010,07,11,14,52,30.60
2010,07,11,14,53,22.50
2010,07,11,14,54,20.90
2010,07,11,14,55,25.70
2010,07,11,14,56,20.90
2010,07,11,14,57,25.70
2010,07,11,14,58,30.60
2010,07,11,14,59,27.40
2010,07,11,15,00,29.00
2010,07,11,15,01,27.40
2010,07,11,15,02,30.60
2010,07,11,15,03,30.60
2010,07,11,15,04,22.50
2010,07,11,15,05,27.40
2010,07,11,15,06,35.40
2010,07,11,15,07,27.40
2010,07,11,15,08,25.70
2010,07,11,15,09,29.00
2010,07,11,15,10,29.00
2010,07,11,15,11,30.60
2010,07,11,15,12,27.40
2010,07,11,15,13,22.50
2010,07,11,15,14,29.00
2010,07,11,15,15,30.60
2010,07,11,15,16,25.70
2010,07,11,15,17,19.30
2010,07,11,15,18,30.60
2010,07,11,15,19,25.70
2010,07,11,15,20,27.40
2010,07,11,15,21,29.00
2010,07,11,15,22,30.60
2010,07,11,15,23,29.00
2010,07,11,15,24,32.20
2010,07,11,15,25,32.20
2010,07,11,15,26,20.90
2010,07,11,15,27,40.20
2010,07,11,15,28,25.70
2010,07,11,15,29,32.20
2010,07,11,15,30,35.40
2010,07,11,15,31,29.00
2010,07,11,15,32,35.40
2010,07,11,15,33,25.70
2010,07,11,15,34,37.00
2010,07,11,15,35,27.40
2010,07,11,15,36,24.20
2010,07,11,15,37,30.60
2010,07,11,15,38,29.00
2010,07,11,15,39,32.20
2010,07,11,15,40,33.80
2010,07,11,15,41,32.20
2010,07,11,15,42,35.40
2010,07,11,15,43,30.60
2010,07,11,15,44,24.20
2010,07,11,15,45,33.80
2010,07,11,15,46,24.20
2010,07,11,15,47,32.20
2010,07,11,15,48,27.40
2010,07,11,15,49,33.80
2010,07,11,15,50,35.40
2010,07,11,15,51,33.80
2010,07,11,15,52,35.40
2010,07,11,15,53,27.40
2010,07,11,15,54,27.40
2010,07,11,15,55,38.60
2010,07,11,15,56,40.20
2010,07,11,15,57,32.20
2010,07,11,15,58,29.00
2010,07,11,15,59,29.00
2010,07,11,16,00,37.00
2010,07,11,16,01,41.80
2010,07,11,16,02,32.20
2010,07,11,16,03,37.00
2010,07,11,16,04,30.60
2010,07,11,16,05,35.40
2010,07,11,16,06,19.30
2010,07,11,16,07,25.70
2010,07,11,16,08,37.00
2010,07,11,16,09,29.00
2010,07,11,16,10,32.20
2010,07,11,16,11,37.00
2010,07,11,16,12,38.60
2010,07,11,16,13,32.20
2010,07,11,16,14,22.50
2010,07,11,16,15,30.60
2010,07,11,16,16,22.50
2010,07,11,16,17,29.00
2010,07,11,16,18,27.40
2010,07,11,16,19,20.90
2010,07,11,16,20,25.70
2010,07,11,16,21,32.20
2010,07,11,16,22,37.00
2010,07,11,16,23,27.40
2010,07,11,16,24,40.20
2010,07,11,16,25,35.40
2010,07,11,16,26,35.40
2010,07,11,16,27,33.80
2010,07,11,16,28,41.80
2010,07,11,16,29,32.20
2010,07,11,16,30,33.80
2010,07,11,16,31,32.20
2010,07,11,16,32,30.60
2010,07,11,16,33,33.80
2010,07,11,16,34,35.40
2010,07,11,16,35,37.00
2010,07,11,16,36,45.10
2010,07,11,16,37,40.20
2010,07,11,16,38,35.40
2010,07,11,16,39,38.60
2010,07,11,16,40,22.50
2010,07,11,16,41,32.20
2010,07,11,16,42,33.80
2010,07,11,16,43,37.00
2010,07,11,16,44,46.70
2010,07,11,16,45,29.00
2010,07,11,16,46,40.20
2010,07,11,16,47,33.80
2010,07,11,16,48,37.00
2010,07,11,16,49,27.40
2010,07,11,16,50,20.90
2010,07,11,16,51,35.40
2010,07,11,16,52,25.70
2010,07,11,16,53,38.60
2010,07,11,16,54,30.60
2010,07,11,16,55,30.60
2010,07,11,16,56,30.60
2010,07,11,16,57,32.20
2010,07,11,16,58,29.00
2010,07,11,16,59,37.00
2010,07,11,17,00,46.70
2010,07,11,17,01,29.00
2010,07,11,17,02,41.80
2010,07,11,17,03,24.20
2010,07,11,17,04,41.80
2010,07,11,17,05,35.40
2010,07,11,17,06,41.80
2010,07,11,17,07,45.10
2010,07,11,17,08,41.80
2010,07,11,17,09,40.20
2010,07,11,17,10,40.20
2010,07,11,17,11,41.80
2010,07,11,17,12,48.30
2010,07,11,17,13,27.40
2010,07,11,17,14,40.20
2010,07,11,17,15,35.40
2010,07,11,17,16,48.30
2010,07,11,17,17,40.20
2010,07,11,17,18,38.60
2010,07,11,17,19,33.80
2010,07,11,17,20,40.20
2010,07,11,17,21,41.80
2010,07,11,17,22,40.20
2010,07,11,17,23,30.60
2010,07,11,17,24,29.00
2010,07,11,17,25,29.00
2010,07,11,17,26,40.20
2010,07,11,17,27,35.40
2010,07,11,17,28,35.40
2010,07,11,17,29,43.50
2010,07,11,17,30,40.20
2010,07,11,17,31,33.80
2010,07,11,17,32,29.00
2010,07,11,17,33,37.00
2010,07,11,17,34,29.00
2010,07,11,17,35,48.30
2010,07,11,17,36,41.80
2010,07,11,17,37,38.60
2010,07,11,17,38,38.60
2010,07,11,17,39,46.70
2010,07,11,17,40,41.80
2010,07,11,17,41,43.50
2010,07,11,17,42,40.20
2010,07,11,17,43,37.00
2010,07,11,17,44,40.20
2010,07,11,17,45,48.30
2010,07,11,17,46,37.00
2010,07,11,17,47,38.60
2010,07,11,17,48,46.70
2010,07,11,17,49,43.50
2010,07,11,17,50,41.80
2010,07,11,17,51,53.10
2010,07,11,17,52,41.80
2010,07,11,17,53,43.50
2010,07,11,17,54,32.20
2010,07,11,17,55,33.80
2010,07,11,17,56,49.90
2010,07,11,17,57,37.00
2010,07,11,17,58,43.50
2010,07,11,17,59,35.40
2010,07,11,18,00,40.20
2010,07,11,18,01,32.20
2010,07,11,18,02,49.90
2010,07,11,18,03,41.80
2010,07,11,18,04,38.60
2010,07,11,18,05,43.50
2010,07,11,18,06,46.70
2010,07,11,18,07,53.10
2010,07,11,18,08,37.00
2010,07,11,18,09,48.30
2010,07,11,18,10,45.10
2010,07,11,18,11,22.50
2010,07,11,18,12,40.20
2010,07,11,18,13,48.30
2010,07,11,18,14,41.80
2010,07,11,18,15,29.00
2010,07,11,18,16,43.50
2010,07,11,18,17,43.50
2010,07,11,18,18,45.10
2010,07,11,18,19,53.10
2010,07,11,18,20,40.20
2010,07,11,18,21,38.60
2010,07,11,18,22,53.10
2010,07,11,18,23,32.20
2010,07,11,18,24,45.10
2010,07,11,18,25,38.60
2010,07,11,18,26,40.20
2010,07,11,18,27,49.90
2010,07,11,18,28,48.30
2010,07,11,18,29,57.90
2010,07,11,18,30,43.50
2010,07,11,18,31,51.50
2010,07,11,18,32,45.10
2010,07,11,18,33,43.50
2010,07,11,18,34,48.30
2010,07,11,18,35,41.80
2010,07,11,18,36,51.50